weather.gov     
National Weather Service

Other Surface Observations
NWS Homepage
This page is being discontinued on March 12, 2014.
The same data is available at this site. Please update your bookmarks.
Thank you, and we apologize for the inconvenience.
Please send an email to SR-SRH.Webmaster@noaa.gov with any concerns.


Current Version
Previous Version:    01  02  03  04  05  06  07  08  09  10  11  12  13  14  15  16  17  18  19  20  21  22  23  24  25  26  27  28  29  30  
   31  32  33  34  35  36  37  38  39  40  41  42  43  44  45  46  47  48  49  50  51  52  53  54  55  56  57  58  59  60  
[Printable]
367
SXUS52 KCHS 191725
OSOCHS

MARINE OBSERVATIONS
NATIONAL WEATHER SERVICE CHARLESTON SC
100 PM EDT FRI SEP 19 2014

...DOWNTOWN CHARLESTON AND HARBOR...

CITY           SKY/WX    TMP DP  RH WIND       PRES   REMARKS
WATERFRONT PRK   N/A     81 N/A N/A E23         N/A
FORT JOHNSON   NOT AVBL

...LAKE MOULTRIE...

CITY           SKY/WX    TMP DP  RH WIND       PRES   REMARKS
PINOPOLIS        N/A     81  70  69 E6        30.01S

...LAKE AND SUPPLEMENTAL COASTAL OBSERVATIONS...

STATION/POSITION TIME  TEMP    WIND        PRES    WAVE   SWELL
                       AIR SEA DIR/SP/G            HT/PER HT/PER/DIR
                 (UTC) (F)     (DEG/KT/KT) (MB)    (FT/S) (FT/S/D)
FORT PULASKI     1700   80      60/ 15/ 17 1017.7S
SAPELO ISLAND    1700   83      80/  7     1018.0S
UPR LAKE MARION  NOT AVBL
WINYAH BAY       1700   80      70/ 15     1019.0S
LAKE MURRAY      1600   69      20/  2/  4 1019.6F
ACE BASIN NERRS  1700   82     100/  5     1018.0S


...C-MAN AND BUOY OBSERVATIONS...

STATION/POSITION TIME  TEMP    WIND        PRES    WAVE   SWELL
                       AIR SEA DIR/SP/G            HT/PER HT/PER/DIR
                 (UTC) (F)     (DEG/KT/KT) (MB)    (FT/S) (FT/S/D)
BUOY 41004       1700   76 82   60/ 19/ 21 1017.4F   4/ 6   2/10
BUOY 41008       1700   81 84   70/ 12/ 14 1017.0R   2/ 9   2/110/ 9
FOLLY BEACH CMAN 1700   78     100/ 16/ 18 1018.6F
CAPERS NS BUOY   1600   79     110/ 17/ 19   N/A
FRIPP NS BUOY    NOT AVBL
5E ST. MARYS GA  1700      84                N/A     2/11   2/100/11
FRYING PAN BUOY  NOT AVBL
BUOY 41025       1700   78      50/ 17/ 23 1020.9S   6/ 8   2/ 50/ 9
CAPE LOOKOUT NC  1700   76      60/ 20/ 22 1020.8R
BUOY 41002       1650   79 82   60/ 16/ 19 1018.4F   4/ 5   2/ 90/ 9
BUOY 41010       1700   83 85   70/ 10/ 12 1015.4F   3/11   3/ 30/11
BUOY 41012       NOT AVBL
ST AUGUSTINE FL  1700   82      90/  6/  7 1017.0R


$$




U.S. Dept. of Commerce
NOAA National Weather Service
1325 East West Highway
Silver Spring, MD 20910
E-mail: w-nws.webmaster@noaa.gov
Page last modified: May 16, 2007
NATIONAL WEATHER SERVICE: for Safety, for Work, for Fun - FOR LIFE